HB9EYZ-1 Weather Reports


time (UTC)temp
C
wind
direction
speed
KPH
gust
KPH
rain 1hr
cm
rain 24hr
cm
rain mn
cm
humidity
%
barometer
mb
20260507164045 16 195 0.0 0.0 0.13 0.00 2.54 23 1009.8
20260507163529 16 228 0.0 0.0 0.13 0.00 2.54 23 1010.0
20260507163012 15 188 0.0 0.0 0.13 0.00 2.54 23 1009.8
20260507161954 16 204 0.0 0.0 0.13 0.00 2.54 24 1010.0
20260507161437 16 184 0.0 0.0 0.13 0.00 2.54 25 1010.0
20260507160921 16 208 0.0 0.0 0.13 0.00 2.54 24 1010.0
20260507160404 16 203 0.0 0.0 0.13 0.00 2.54 23 1009.9
20260507155848 17 222 0.0 0.0 0.13 0.00 2.54 23 1009.9
20260507155331 17 187 0.0 0.0 0.13 0.00 2.54 22 1010.0
20260507154815 17 197 0.0 0.0 0.13 0.00 2.54 22 1009.7
20260507154258 17 199 0.0 0.0 0.13 0.00 2.54 23 1009.9
20260507153742 17 220 0.0 0.0 0.13 0.00 2.54 23 1009.8
20260507153225 18 177 0.0 0.0 0.13 0.00 2.54 22 1009.8
20260507152706 18 191 0.0 0.0 0.13 0.00 2.54 21 1010.0
20260507152149 18 240 0.0 0.0 0.13 0.00 2.54 23 1009.8
20260507151631 18 190 0.0 0.0 0.13 0.00 2.54 23 1009.9
20260507151113 18 195 0.0 0.0 0.13 0.00 2.54 23 1009.8
20260507150555 18 259 0.0 0.0 0.13 0.00 2.54 22 1009.7
20260507150038 18 261 0.0 0.0 0.13 0.00 2.54 23 1010.0
20260507145521 18 191 0.0 0.0 0.13 0.00 2.54 22 1009.8
20260507145004 18 187 0.0 0.0 0.13 0.00 2.54 22 1010.0
20260507143946 18 202 0.0 0.0 0.13 0.00 2.54 23 1009.8
20260507143430 18 156 0.0 0.0 0.13 0.00 2.54 22 1009.9
20260507142913 17 229 0.0 0.0 0.13 0.00 2.54 23 1009.8
20260507142356 17 245 0.0 0.0 0.13 0.00 2.54 23 1009.8
20260507141840 18 226 0.0 0.0 0.13 0.00 2.54 23 1010.0
20260507141323 18 233 0.0 0.0 0.13 0.00 2.54 23 1010.0
20260507140807 18 221 0.0 0.0 0.13 0.00 2.54 22 1009.9
20260507140250 18 190 0.0 0.0 0.13 0.00 2.54 23 1009.9
20260507135734 18 206 0.0 0.0 0.13 0.00 2.54 23 1009.8
20260507135217 18 192 0.0 0.0 0.13 0.00 2.54 23 1009.9
20260507134701 18 199 0.0 0.0 0.13 0.00 2.54 22 1009.9
20260507134144 18 203 0.0 0.0 0.13 0.00 2.54 22 1010.1
20260507133628 18 189 0.0 0.0 0.13 0.00 2.54 22 1010.1
20260507133111 18 188 0.0 0.0 0.13 0.00 2.54 19 1010.2
20260507132555 18 196 0.0 0.0 0.13 0.00 2.54 22 1010.4
20260507132038 18 215 0.0 0.0 0.13 0.00 2.54 20 1010.4
20260507131522 18 320 0.0 0.0 0.13 0.00 2.54 22 1010.6
20260507131005 18 180 0.0 0.0 0.13 0.00 2.54 21 1010.5
20260507125947 17 193 0.0 0.0 0.13 0.00 2.54 23 1010.3
20260507125431 17 231 0.0 0.0 0.13 0.00 2.54 22 1010.3
20260507124914 17 222 0.0 0.0 0.13 0.00 2.54 24 1010.2
20260507124358 16 206 0.0 0.0 0.13 0.00 2.54 22 1010.7
20260507123841 16 170 0.0 0.0 0.13 0.00 2.54 25 1010.6
20260507123324 16 214 0.0 0.0 0.13 0.00 2.54 24 1010.4
20260507122808 16 223 0.0 0.0 0.13 0.00 2.54 26 1010.4
20260507122251 16 214 0.0 0.0 0.13 0.00 2.54 24 1010.5
20260507121735 16 205 0.0 0.0 0.13 0.00 2.54 25 1010.5
20260507121218 16 225 0.0 0.0 0.13 0.00 2.54 22 1010.7
20260507120702 15 217 0.0 0.0 0.13 0.00 2.54 23 1010.6
20260507120145 15 196 0.0 0.0 0.13 0.00 2.54 26 1010.4
20260507115629 16 206 0.0 0.0 0.13 0.00 2.54 28 1010.6
20260507115112 16 201 0.0 0.0 0.13 0.00 2.54 28 1010.5
20260507114555 16 209 0.0 0.0 0.13 0.00 2.54 27 1010.6
20260507114039 16 222 0.0 0.0 0.13 0.00 2.54 25 1010.6
20260507113522 16 211 0.0 0.0 0.13 0.00 2.54 24 1010.5
20260507113006 15 227 0.0 0.0 0.13 0.00 2.54 23 1010.6
20260507112449 15 206 0.0 0.0 0.13 0.00 2.54 25 1010.5
20260507111932 14 239 0.0 0.0 0.13 0.00 2.54 27 1010.4
20260507111415 13 248 0.0 0.0 0.13 0.00 2.54 30 1010.5
20260507110858 13 213 0.0 0.0 0.13 0.00 2.54 30 1010.6
20260507110339 13 217 0.0 0.0 0.13 0.00 2.54 31 1010.7
20260507105822 13 233 0.0 0.0 0.13 0.00 2.54 31 1010.7
20260507105306 14 210 0.0 0.0 0.13 0.00 2.54 33 1011.0
20260507104748 15 209 0.0 0.0 0.13 0.00 2.54 31 1010.6
20260507104231 15 201 0.0 0.0 0.13 0.00 2.54 33 1010.6
20260507103714 15 210 0.0 0.0 0.13 0.00 2.54 31 1011.0
20260507103157 15 224 0.0 0.0 0.13 0.00 2.54 29 1010.7
20260507102640 15 227 0.0 0.0 0.13 0.00 2.54 29 1010.7
20260507102123 15 249 0.0 0.0 0.13 0.00 2.54 29 1010.7
20260507101606 14 249 0.0 0.0 0.13 0.00 2.54 31 1010.6
20260507101049 14 171 0.0 0.0 0.13 0.00 2.54 30 1010.5
20260507100530 14 315 0.0 0.0 0.13 0.00 2.54 29 1010.9
20260507100012 13 207 0.0 0.0 0.13 0.00 2.54 31 1010.9
20260507095455 13 203 0.0 0.0 0.13 0.00 2.54 32 1010.9
20260507094938 13 227 0.0 0.0 0.13 0.00 2.54 33 1010.7
20260507094422 14 220 0.0 0.0 0.13 0.00 2.54 33 1010.6
20260507093905 15 207 0.0 0.0 0.13 0.00 2.54 33 1010.7
20260507093349 15 226 0.0 0.0 0.13 0.00 2.54 32 1010.8
20260507092832 15 241 0.0 0.0 0.13 0.00 2.54 32 1010.7
20260507092316 15 202 0.0 0.0 0.13 0.00 2.54 31 1010.9
20260507091759 15 219 0.0 0.0 0.13 0.00 2.54 29 1010.7
20260507091243 15 223 0.0 0.0 0.13 0.00 2.54 30 1010.8
20260507090726 15 218 0.0 0.0 0.13 0.00 2.54 29 1010.7
20260507090209 15 226 0.0 0.0 0.13 0.00 2.54 30 1010.8
20260507085653 15 241 0.0 0.0 0.13 0.00 2.54 31 1010.5
20260507085136 14 264 0.0 0.0 0.13 0.00 2.54 29 1010.4
20260507084620 13 221 0.0 0.0 0.13 0.00 2.54 29 1010.5
20260507084103 13 244 0.0 0.0 0.13 0.00 2.54 30 1010.5
20260507083547 12 218 0.0 0.0 0.13 0.00 2.54 32 1010.6
20260507083030 12 223 0.0 0.0 0.13 0.00 2.54 39 1010.4
20260507082514 11 205 0.0 0.0 0.13 0.00 2.54 43 1010.7
20260507081957 11 218 0.0 0.0 0.13 0.00 2.54 46 1010.4
20260507081440 11 229 0.0 0.0 0.13 0.00 2.54 50 1010.6
20260507080921 11 224 0.0 0.0 0.13 0.00 2.54 51 1010.5
20260507080404 11 196 0.0 0.0 0.13 0.00 2.54 52 1010.6
20260507075845 11 214 0.0 0.0 0.13 0.00 2.54 54 1010.2
20260507075328 11 218 0.0 0.0 0.13 0.00 2.54 57 1010.7
20260507074811 11 231 0.0 0.0 0.13 0.00 2.54 59 1010.4
20260507074252 11 226 0.0 0.0 0.13 0.00 2.54 63 1010.4
20260507073735 11 224 0.0 0.0 0.13 0.00 2.54 70 1010.5
20260507073215 10 226 0.0 0.0 0.13 0.00 2.54 72 1010.3
20260507072659 10 224 0.0 0.0 0.13 0.00 2.54 76 1010.5
20260507072142 10 222 0.0 0.0 0.13 0.00 2.54 78 1010.4
20260507071625 10 225 0.0 0.0 0.13 0.00 2.54 79 1010.5
20260507071108 10 223 0.0 0.0 0.13 0.00 2.54 79 1010.2
20260507070549 10 227 0.0 0.0 0.13 0.00 2.54 79 1010.4
20260507070031 10 229 0.0 0.0 0.13 0.00 2.54 80 1010.1
20260507065512 10 226 0.0 0.0 0.13 0.00 2.54 80 1010.3
20260507064955 10 224 0.0 0.0 0.13 0.00 2.54 81 1010.2
20260507064437 10 224 0.0 0.0 0.13 0.00 2.54 81 1010.3
20260507063920 10 224 0.0 0.0 0.13 0.00 2.54 81 1010.2
20260507063404 10 224 0.0 0.0 0.13 0.00 2.54 81 1010.1
20260507062847 10 224 0.0 0.0 0.13 0.00 2.54 81 1010.1
20260507062331 10 224 0.0 0.0 0.13 0.00 2.54 82 1009.9
20260507061814 10 224 0.0 0.0 0.13 0.00 2.54 82 1010.1
20260507061258 10 223 0.0 0.0 0.13 0.00 2.54 82 1009.9
20260507060741 10 227 0.0 0.0 0.13 0.00 2.54 82 1009.9
20260507060225 10 227 0.0 0.0 0.13 0.00 2.54 82 1009.9
20260507055708 10 230 0.0 0.0 0.13 0.00 2.54 82 1009.9
20260507055151 10 227 0.0 0.0 0.13 0.00 2.54 82 1010.0
20260507054635 10 227 0.0 0.0 0.13 0.00 2.54 82 1009.7
20260507054118 10 227 0.0 0.0 0.13 0.00 2.54 82 1010.0
20260507053602 10 225 0.0 0.0 0.13 0.00 2.54 82 1009.6
20260507053045 10 225 0.0 0.0 0.13 0.00 2.54 82 1009.6
20260507052529 10 224 0.0 0.0 0.13 0.00 2.54 82 1009.9
20260507052012 10 225 0.0 0.0 0.13 0.00 2.54 82 1009.5
20260507050453 10 224 0.0 0.0 0.13 0.00 2.54 82 1009.4
20260507045936 10 224 0.0 0.0 0.13 0.00 2.54 82 1009.2
20260507045419 10 224 0.0 0.0 0.10 0.00 2.54 81 1009.4
20260507044903 10 224 0.0 0.0 0.10 0.00 2.54 81 1009.1
20260507044346 10 224 0.0 0.0 0.10 0.00 2.54 81 1009.1
20260507043830 10 226 0.0 0.0 0.10 0.00 2.54 81 1008.9
20260507043314 10 227 0.0 0.0 0.10 0.00 2.54 81 1009.0
20260507042756 10 227 0.0 0.0 0.10 0.00 2.54 81 1008.9
20260507042240 10 228 0.0 0.0 0.10 0.00 2.54 81 1009.0
20260507041723 10 236 0.0 0.0 0.10 0.00 2.54 81 1008.8
20260507041206 10 229 0.0 0.0 0.10 0.00 2.54 81 1008.7
20260507040650 10 230 0.0 0.0 0.10 0.00 2.54 81 1008.7
20260507040133 10 230 0.0 0.0 0.10 0.00 2.54 81 1008.9
20260507035617 10 229 0.0 0.0 0.10 0.00 2.54 81 1008.8
20260507035100 10 229 0.0 0.0 0.10 0.00 2.54 81 1008.8
20260507034544 10 234 0.0 0.0 0.10 0.00 2.54 81 1008.9
20260507034027 10 235 0.0 0.0 0.10 0.00 2.54 81 1008.6
20260507033511 10 224 0.0 0.0 0.10 0.00 2.54 81 1008.7
20260507031949 10 227 0.0 0.0 0.10 0.00 2.54 81 1008.6
20260507031432 10 230 0.0 0.0 0.10 0.00 2.54 81 1008.5
20260507030913 10 230 0.0 0.0 0.10 0.00 2.54 81 1008.6
20260507030355 10 236 0.0 0.0 0.10 0.00 2.54 81 1008.6
20260507025838 10 230 0.0 0.0 0.10 0.00 2.54 81 1008.3
20260507025321 10 230 0.0 0.0 0.10 0.00 2.54 81 1008.5
20260507024802 10 233 0.0 0.0 0.10 0.00 2.54 81 1008.5
20260507024245 10 234 0.0 0.0 0.08 0.00 2.54 81 1008.7
20260507023727 10 232 0.0 0.0 0.08 0.00 2.54 81 1008.4
20260507023210 10 229 0.0 0.0 0.08 0.00 2.54 81 1008.5
20260507022653 10 229 0.0 0.0 0.08 0.00 2.54 81 1008.4
20260507022135 10 229 0.0 0.0 0.08 0.00 2.54 80 1008.4
20260507021619 10 229 0.0 0.0 0.05 0.00 2.54 80 1008.1
20260507021102 10 229 0.0 0.0 0.05 0.00 2.54 80 1008.5
20260507020543 10 225 0.0 0.0 0.05 0.00 2.54 80 1008.3
20260507020024 10 225 0.0 0.0 0.05 0.00 2.54 80 1008.3
20260507015506 10 225 0.0 0.0 0.05 0.00 2.54 80 1008.1
20260507014949 10 225 0.0 0.0 0.03 0.00 2.54 80 1008.3
20260507014432 10 225 0.0 0.0 0.03 0.00 2.54 80 1008.2
20260507013915 10 225 0.0 0.0 0.03 0.00 2.54 80 1008.0
20260507013358 10 225 0.0 0.0 0.03 0.00 2.54 80 1007.9
20260507012841 10 224 0.0 0.0 0.03 0.00 2.54 80 1008.2
20260507012325 10 224 0.0 0.0 0.03 0.00 2.54 80 1008.0
20260507011808 10 225 0.0 0.0 0.00 0.00 2.54 80 1008.1
20260507011252 10 225 0.0 0.0 0.00 0.00 2.54 80 1008.0
20260507010735 10 224 0.0 0.0 0.00 0.00 2.54 80 1007.9
20260507010218 10 225 0.0 0.0 0.00 0.00 2.54 80 1007.8
20260507005702 10 225 0.0 0.0 0.00 0.00 2.54 80 1007.8
20260507005145 10 225 0.0 0.0 0.00 0.00 2.54 80 1008.0
20260507004629 10 223 0.0 0.0 0.00 0.00 2.54 80 1008.0
20260507004112 10 224 0.0 0.0 0.00 0.00 2.54 80 1008.0
20260507003556 10 221 0.0 0.0 0.00 0.00 2.54 80 1007.8
20260507003039 10 229 0.0 0.0 0.00 0.00 2.54 80 1007.9
20260507002523 10 229 0.0 0.0 0.00 0.00 2.54 80 1007.9
20260507002006 10 229 0.0 0.0 0.00 0.00 2.54 79 1007.6
20260507000447 10 229 0.0 0.0 0.00 0.00 2.54 79 1007.8
20260506235930 10 229 0.0 0.0 0.00 0.00 2.54 79 1007.5
20260506235413 10 229 0.0 0.0 0.00 0.00 2.54 79 1007.7
20260506234857 10 231 0.0 0.0 0.00 0.00 2.54 79 1007.7
20260506234340 10 228 0.0 0.0 0.00 0.00 2.54 79 1007.6
20260506233824 10 229 0.0 0.0 0.00 0.00 2.54 79 1007.9
20260506233307 10 228 0.0 0.0 0.00 0.00 2.54 79 1007.6
20260506232751 10 223 0.0 0.0 0.00 0.00 2.54 79 1007.5
20260506232234 10 230 0.0 0.0 0.00 0.00 2.54 78 1007.8
20260506231717 10 230 0.0 0.0 0.00 0.00 2.54 78 1007.7
20260506231201 10 235 0.0 0.0 0.00 0.00 2.54 77 1007.8
20260506230644 10 229 0.0 0.0 0.00 0.00 2.54 77 1007.9
20260506230128 10 229 0.0 0.0 0.00 0.00 2.54 77 1007.7
20260506225610 10 228 0.0 0.0 0.00 0.00 2.54 76 1007.8
20260506225052 10 229 0.0 0.0 0.00 0.00 2.54 76 1007.6
20260506224535 10 229 0.0 0.0 0.00 0.00 2.54 76 1007.8
20260506224018 10 228 0.0 0.0 0.00 0.00 2.54 75 1007.8
20260506223501 10 229 0.0 0.0 0.00 0.00 2.54 75 1007.6
20260506222945 10 226 0.0 0.0 0.00 0.00 2.54 75 1007.6
20260506222428 10 232 0.0 0.0 0.00 0.00 2.54 75 1007.7
20260506221911 10 233 0.0 0.0 0.00 0.00 2.54 75 1007.5
20260506221354 10 229 0.0 0.0 0.00 0.00 2.54 75 1007.5
20260506220835 10 245 0.0 0.0 0.00 0.00 2.54 75 1007.5
20260506220318 10 235 0.0 0.0 0.00 0.00 2.54 74 1007.7
20260506215801 10 227 0.0 0.0 0.58 0.00 2.54 74 1007.6
20260506215245 10 225 0.0 0.0 0.58 0.00 2.54 74 1007.6
20260506214728 10 226 0.0 0.0 0.58 0.00 2.54 74 1007.5
20260506214211 10 232 0.0 0.0 0.58 0.00 2.54 74 1007.8
20260506213654 10 224 0.0 0.0 0.58 0.00 2.54 73 1007.8
20260506213137 10 229 0.0 0.0 0.58 0.00 2.54 73 1007.5
20260506212618 10 234 0.0 0.0 0.58 0.00 2.54 73 1007.5
20260506212102 10 234 0.0 0.0 0.58 0.00 2.54 72 1007.7
20260506211545 10 234 0.0 0.0 0.58 0.00 2.54 72 1007.5
20260506211029 10 234 0.0 0.0 0.58 0.00 2.54 72 1007.4
20260506210009 10 238 0.0 0.0 0.58 0.00 2.54 71 1007.4
20260506203947 10 234 0.0 0.0 0.58 0.00 2.54 71 1007.4
20260506203430 10 234 0.0 0.0 0.58 0.00 2.54 71 1007.4
20260506202914 10 222 0.0 0.0 0.58 0.00 2.54 70 1007.5
20260506202357 10 222 0.0 0.0 0.58 0.00 2.54 70 1007.4
20260506201840 10 218 0.0 0.0 0.58 0.00 2.54 70 1007.0
20260506201324 10 226 0.0 0.0 0.58 0.00 2.54 68 1007.1
20260506200807 10 225 0.0 0.0 0.58 0.00 2.54 67 1007.2
20260506200248 10 224 0.0 0.0 0.58 0.00 2.54 66 1006.9
20260506195730 10 225 0.0 0.0 0.58 0.00 2.54 65 1007.0
20260506195212 10 226 0.0 0.0 0.58 0.00 2.54 64 1006.6
20260506194654 10 227 0.0 0.0 0.58 0.00 2.54 63 1006.6
20260506194135 10 232 0.0 0.0 0.58 0.00 2.54 62 1006.7
20260506193618 10 229 0.0 0.0 0.58 0.00 2.54 62 1006.5
20260506193102 10 234 0.0 0.0 0.58 0.00 2.54 61 1006.6
20260506192545 10 230 0.0 0.0 0.58 0.00 2.54 60 1006.4
20260506192028 10 230 0.0 0.0 0.58 0.00 2.54 60 1006.5
20260506191511 10 231 0.0 0.0 0.58 0.00 2.54 59 1006.4
20260506190453 10 228 0.0 0.0 0.58 0.00 2.54 57 1006.4
20260506185936 10 235 0.0 0.0 0.58 0.00 2.54 56 1006.3
20260506185420 10 235 0.0 0.0 0.58 0.00 2.54 56 1006.2
20260506184903 11 222 0.0 0.0 0.58 0.00 2.54 55 1006.2
20260506184347 11 225 0.0 0.0 0.58 0.00 2.54 54 1006.3
20260506183830 11 231 0.0 0.0 0.58 0.00 2.54 52 1006.0
20260506183314 11 234 0.0 0.0 0.58 0.00 2.54 51 1006.0
20260506182757 11 231 0.0 0.0 0.58 0.00 2.54 51 1006.0
20260506182240 11 232 0.0 0.0 0.58 0.00 2.54 51 1005.9
20260506181724 11 228 0.0 0.0 0.58 0.00 2.54 50 1005.9
20260506181207 11 226 0.0 0.0 0.58 0.00 2.54 50 1005.8
20260506180651 11 226 0.0 0.0 0.58 0.00 2.54 49 1005.9
20260506180134 11 229 0.0 0.0 0.58 0.00 2.54 49 1005.9
20260506175618 11 222 0.0 0.0 0.58 0.00 2.54 49 1005.7
20260506175101 11 222 0.0 0.0 0.58 0.00 2.54 49 1005.7
20260506174544 11 222 0.0 0.0 0.58 0.00 2.54 49 1005.6
20260506174027 11 223 0.0 0.0 0.58 0.00 2.54 49 1005.6
20260506173511 11 222 0.0 0.0 0.58 0.00 2.54 49 1005.6
20260506171950 11 228 0.0 0.0 0.58 0.00 2.54 49 1005.5
20260506171434 11 225 0.0 0.0 0.58 0.00 2.54 49 1005.3
20260506170917 11 227 0.0 0.0 0.58 0.00 2.54 48 1005.0
20260506170400 11 228 0.0 0.0 0.58 0.00 2.54 49 1005.2
20260506165843 11 215 0.0 0.0 0.58 0.00 2.54 49 1005.2
20260506165325 11 228 0.0 0.0 0.58 0.00 2.54 49 1005.0
20260506164808 11 225 0.0 0.0 0.58 0.00 2.54 49 1005.0